DW8022 Weather Reports


time (UTC)temp
C
wind
direction
speed
KPH
gust
KPH
rain 1hr
cm
rain 24hr
cm
rain mn
cm
humidity
%
barometer
mb
20260509024141 22 101 1.6 11.3 0.00 0.00 0.00 50 1022.1
20260509022622 23 69 3.2 8.0 0.00 0.00 0.00 49 1022.2
20260509021124 25 145 3.2 11.3 0.00 0.00 0.00 45 1022.5
20260509020321 23 317 1.6 11.3 0.00 0.00 0.00 49 1022.5
20260509014803 24 92 3.2 12.9 0.00 0.00 0.00 47 1022.7
20260509014003 23 16 1.6 8.0 0.00 0.00 0.00 53 1023.0
20260509011809 23 92 3.2 11.3 0.00 0.00 0.00 50 1023.0
20260509005550 23 68 3.2 9.7 0.00 0.00 0.00 53 1023.2
20260509004028 23 194 3.2 14.5 0.00 0.00 0.00 54 1023.1
20260509001022 22 207 4.8 12.9 0.00 0.00 0.00 55 1023.2
20260508235508 21 264 1.6 8.0 0.00 0.00 0.00 59 1023.1
20260508233956 19 30 3.2 6.4 0.00 0.00 0.00 69 1023.1
20260508232502 17 11 0.0 3.2 0.00 0.00 0.00 73 1022.9
20260508231000 16 309 1.6 3.2 0.00 0.00 0.00 76 1023.1
20260508225455 15 11 0.0 3.2 0.00 0.00 0.00 77 1022.8
20260508224657 15 294 0.0 0.0 0.00 0.00 0.00 78 1022.7
20260508222453 13 294 0.0 0.0 0.00 0.00 0.00 83 1022.9
20260508215501 10 294 0.0 0.0 0.00 0.00 0.00 90 1022.5
20260508213948 10 294 0.0 0.0 0.00 0.00 0.00 91 1022.2
20260508212450 9 294 0.0 1.6 0.00 0.00 0.00 91 1022.0
20260508211623 8 294 0.0 0.0 0.00 0.00 0.00 91 1021.8
20260508205423 8 294 0.0 0.0 0.00 0.00 0.00 89 1021.7
20260508203914 8 294 0.0 1.6 0.00 0.00 0.00 89 1021.7
20260508202423 8 294 0.0 0.0 0.00 0.00 0.00 89 1021.4
20260508201634 8 294 0.0 1.6 0.00 0.00 0.00 89 1021.2
20260508194547 8 182 0.0 1.6 0.00 0.00 0.00 88 1020.7
20260508192349 8 182 0.0 0.0 0.00 0.00 0.00 88 1020.7
20260508185340 8 182 0.0 0.0 0.00 0.00 0.00 88 1020.6
20260508184530 8 182 0.0 0.0 0.00 0.00 0.00 88 1020.5
20260508182328 7 182 0.0 3.2 0.00 0.00 0.00 88 1020.4
20260508180751 7 182 0.0 0.0 0.00 0.00 0.00 87 1020.4
20260508173751 7 182 0.0 0.0 0.00 0.00 0.00 87 1020.5
20260508172230 7 182 0.0 0.0 0.00 0.00 0.00 86 1020.3
20260508171406 7 182 0.0 0.0 0.00 0.00 0.00 86 1020.1
20260508165209 7 182 0.0 0.0 0.00 0.00 0.00 86 1019.9
20260508163711 7 182 0.0 0.0 0.00 0.00 0.00 86 1020.0
20260508162220 7 182 0.0 0.0 0.00 0.00 0.00 85 1020.0
20260508160655 7 182 0.0 3.2 0.00 0.00 0.00 85 1020.2
20260508155146 8 182 0.0 0.0 0.00 0.00 0.00 85 1020.2
20260508153652 8 182 0.0 0.0 0.00 0.00 0.00 84 1019.9
20260508150629 8 182 0.0 1.6 0.00 0.00 0.00 84 1020.1
20260508145130 8 182 0.0 0.0 0.00 0.00 0.00 83 1020.1
20260508144338 8 182 0.0 1.6 0.00 0.00 0.00 83 1020.0
20260508142039 8 182 0.0 1.6 0.00 0.00 0.00 83 1020.0
20260508140544 8 182 0.0 0.0 0.00 0.00 0.00 81 1020.1
20260508135021 8 182 0.0 0.0 0.00 0.00 0.00 81 1019.8
20260508133516 9 182 0.0 0.0 0.00 0.00 0.00 80 1019.8
20260508132014 9 182 0.0 0.0 0.00 0.00 0.00 79 1019.6
20260508130522 9 182 0.0 3.2 0.00 0.00 0.00 78 1019.6
20260508125011 10 182 0.0 3.2 0.00 0.00 0.00 77 1019.5
20260508123518 10 182 0.0 3.2 0.00 0.00 0.00 75 1019.5
20260508122014 10 182 0.0 0.0 0.00 0.00 0.00 73 1019.6
20260508120502 10 182 0.0 0.0 0.00 0.00 0.00 72 1019.6
20260508114933 11 182 0.0 0.0 0.00 0.00 0.00 71 1019.7
20260508111923 11 182 0.0 0.0 0.00 0.00 0.00 72 1019.6
20260508111128 11 182 0.0 0.0 0.00 0.00 0.00 71 1019.3
20260508103411 11 182 0.0 3.2 0.00 0.00 0.00 69 1019.5
20260508101905 11 182 0.0 3.2 0.00 0.00 0.00 69 1019.1
20260508100339 11 182 0.0 3.2 0.00 0.00 0.00 68 1019.1
20260508093340 12 274 0.0 0.0 0.00 0.00 0.00 67 1018.8
20260508091825 13 274 0.0 0.0 0.00 0.00 0.00 66 1018.7
20260508090327 13 161 0.0 0.0 0.00 0.00 0.00 64 1018.5
20260508084817 13 161 0.0 3.2 0.00 0.00 0.00 64 1018.6
20260508083305 14 161 0.0 0.0 0.00 0.00 0.00 65 1018.2
20260508081816 14 161 0.0 0.0 0.00 0.00 0.00 63 1018.0
20260508080243 15 161 0.0 0.0 0.00 0.00 0.00 62 1017.7
20260508074732 16 161 0.0 0.0 0.00 0.00 0.00 58 1017.6
20260508073225 16 161 0.0 3.2 0.00 0.00 0.00 55 1017.6
20260508071722 17 161 0.0 1.6 0.00 0.00 0.00 52 1017.4
20260508070222 18 161 1.6 3.2 0.00 0.00 0.00 50 1017.1
20260508064721 19 256 0.0 0.0 0.00 0.00 0.00 53 1017.1
20260508063235 19 256 0.0 3.2 0.00 0.00 0.00 49 1016.9
20260508061651 20 256 0.0 3.2 0.00 0.00 0.00 39 1016.8
20260508060853 21 321 0.0 0.0 0.00 0.00 0.00 38 1016.8
20260508055406 21 321 0.0 3.2 0.00 0.00 0.00 35 1016.7
20260508053127 21 321 0.0 3.2 0.00 0.00 0.00 34 1016.9
20260508050132 22 263 1.6 9.7 0.00 0.00 0.00 27 1017.2
20260508045343 23 252 1.6 11.3 0.00 0.00 0.00 28 1017.2
20260508043055 23 237 3.2 9.7 0.00 0.00 0.00 27 1016.9
20260508041602 23 310 1.6 6.4 0.00 0.00 0.00 27 1017.1
20260508040035 22 38 1.6 6.4 0.00 0.00 0.00 25 1017.2
20260508034542 23 255 3.2 9.7 0.00 0.00 0.00 26 1017.4
20260508033038 23 283 3.2 12.9 0.00 0.00 0.00 24 1017.4
20260508031509 23 242 3.2 12.9 0.00 0.00 0.00 30 1017.7
20260508025957 22 319 3.2 12.9 0.00 0.00 0.00 26 1017.9
20260508024457 22 227 3.2 8.0 0.00 0.00 0.00 30 1017.8